North Adams, MA

4:47 AM EST on November 23, 2017 (GMT -0500)
Harriman And West

Weather History for KAQW - August, 2014

Change the Weather History Date:

Monday, August 11, 2014

  Actual Average Record
Temperature  
Mean Temperature 68 °F -  
Max Temperature 84 °F 78 °F 90 °F (2016)
Min Temperature 53 °F 57 °F 48 °F (2006)
Cooling Degree Days 2    
Growing Degree Days 18 (Base 50)    
Moisture  
Dew Point 59 °F    
Average Humidity 75    
Maximum Humidity 97    
Minimum Humidity 41    
Precipitation  
Precipitation 0.00 in - - ()
Sea Level Pressure  
Sea Level Pressure 30.13 in    
Wind  
Wind Speed 1 mph (ESE)    
Max Wind Speed 8 mph    
Max Gust Speed -    
Visibility 10 miles    
Events      
Averages and records for this station are not official NWS values.
T = Trace of Precipitation, MM = Missing Value Source: NWS Daily Summary

Daily Weather History Graph

Daily Weather History Graph

Search for Another Location

Airport or City:

Trip Planner

Search our weather history database for the weather conditions in past years. The results will help you decide how hot, cold, wet, or windy it might be!

Date:

Astronomy

Aug. 11, 2014 Rise Set
Actual Time 5:54 AM EDT 8:00 PM EDT
Civil Twilight 5:23 AM EDT 8:30 PM EDT
Nautical Twilight 4:45 AM EDT 9:08 PM EDT
Astronomical Twilight 4:04 AM EDT 9:50 PM EDT
Moon 8:23 PM EDT (8/11) 6:59 AM EDT (8/11)
Length of Visible Light 15h 07m
Length of Day
14h 05m
Full, 99% of the Moon is Illuminated
Aug 11
Full
Aug 17
Last Quarter
Aug 25
New
Sep 2
First Quarter
Sep 8
Full

Hourly Weather History & Observations

Time (EDT) Temp. Heat Index Dew Point Humidity Pressure Visibility Wind Dir Wind Speed Gust Speed Precip Events Conditions
12:52 AM 57.9 °F - 55.9 °F 93% 30.16 in 10.0 mi Calm Calm - N/A   Clear
1:52 AM 55.9 °F - 55.0 °F 97% 30.16 in 9.0 mi Calm Calm - N/A   Clear
2:52 AM 55.9 °F - 55.0 °F 97% 30.16 in 9.0 mi Calm Calm - N/A   Clear
3:52 AM 55.0 °F - 54.0 °F 96% 30.17 in 8.0 mi Calm Calm - N/A   Clear
5:52 AM 53.1 °F - 52.0 °F 96% 30.17 in 10.0 mi Calm Calm - N/A   Clear
6:52 AM 54.0 °F - 53.1 °F 97% 30.17 in 8.0 mi Calm Calm - N/A   Clear
7:52 AM 60.1 °F - 57.0 °F 90% 30.18 in 10.0 mi Calm Calm - N/A   Clear
8:52 AM 64.9 °F - 57.9 °F 78% 30.17 in 10.0 mi Calm Calm - N/A   Clear
9:52 AM 71.1 °F - 62.1 °F 73% 30.16 in 10.0 mi Calm Calm - N/A   Clear
10:52 AM 75.9 °F - 60.1 °F 58% 30.15 in 10.0 mi Calm Calm - N/A   Clear
11:52 AM 80.1 °F 80.2 °F 55.9 °F 43% 30.13 in 10.0 mi Calm Calm - N/A   Clear
12:52 PM 82.0 °F 81.7 °F 57.0 °F 42% 30.12 in 10.0 mi South 3.5 mph - N/A   Clear
1:52 PM 82.9 °F 82.4 °F 57.0 °F 41% 30.11 in 10.0 mi Variable 3.5 mph - N/A   Partly Cloudy
2:52 PM 82.0 °F 82.0 °F 57.9 °F 44% 30.10 in 10.0 mi Calm Calm - N/A   Mostly Cloudy
3:52 PM 81.0 °F 82.7 °F 64.9 °F 58% 30.09 in 10.0 mi ESE 6.9 mph - N/A   Overcast
4:52 PM 75.9 °F - 61.0 °F 60% 30.09 in 10.0 mi SE 8.1 mph - N/A   Overcast
5:52 PM 73.9 °F - 64.0 °F 71% 30.09 in 10.0 mi Variable 5.8 mph - 0.00 in   Overcast
6:52 PM 72.0 °F - 64.0 °F 76% 30.09 in 10.0 mi East 6.9 mph - N/A   Overcast
7:52 PM 71.1 °F - 64.9 °F 81% 30.09 in 10.0 mi East 5.8 mph - N/A   Overcast
8:52 PM 70.0 °F - 64.0 °F 81% 30.10 in 10.0 mi NE 4.6 mph - N/A   Mostly Cloudy
9:52 PM 68.0 °F - 64.0 °F 87% 30.11 in 10.0 mi East 5.8 mph - N/A   Clear
11:52 PM 64.0 °F - 61.0 °F 90% 30.11 in 10.0 mi ESE 4.6 mph - N/A   Clear